Location: Poughquag
(41.6090°N, 73.6820°W)
Time: 03:35:05
(UTC-04:00)

Vanguard 1 Rocket - Pass Details

Date: 07 June 2020
Orbit: 653 x 4224 km, 34.3° (Epoch: 06 July)

Event Time Altitude Azimuth Distance (km) Brightness Sun altitude
Rises 22:00:08 0° 224° (SW) 8,253 12.2 -14.0°
Reaches altitude 10° 22:06:02 10° 220° (SW) 7,374 11.9 -14.7°
Maximum altitude 22:30:12 50° 154° (SSE) 4,411 10.4 -17.4°
Drops below altitude 10° 22:47:11 10° 86° (E) 5,420 11.1 -19.2°
Sets 22:50:40 0° 81° (E) 6,038 11.4 -19.5°
